| time (UTC) | temp C | wind direction | speed KPH | gust KPH | rain 1hr cm | rain 24hr cm | rain mn cm | humidity % | barometer mb |
| 20260506190410 | 12 | 15 | 12.9 | 25.7 | 0.00 | 0.00 | 0.00 | 36 | 1017.5 |
| 20260506185907 | 11 | 10 | 12.9 | 16.1 | 0.00 | 0.00 | 0.00 | 38 | 1017.3 |
| 20260506185405 | 11 | 313 | 3.2 | 20.9 | 0.00 | 0.00 | 0.00 | 38 | 1017.5 |
| 20260506184902 | 12 | 299 | 16.1 | 22.5 | 0.00 | 0.00 | 0.00 | 38 | 1017.5 |
| 20260506184358 | 12 | 325 | 3.2 | 12.9 | 0.00 | 0.00 | 0.00 | 39 | 1017.6 |
| 20260506183855 | 12 | 330 | 4.8 | 14.5 | 0.00 | 0.00 | 0.00 | 41 | 1017.7 |
| 20260506183350 | 12 | 2 | 6.4 | 11.3 | 0.00 | 0.00 | 0.00 | 39 | 1017.6 |
| 20260506182848 | 11 | 323 | 9.7 | 14.5 | 0.00 | 0.00 | 0.00 | 40 | 1017.7 |
| 20260506182345 | 12 | 22 | 11.3 | 25.7 | 0.00 | 0.00 | 0.00 | 40 | 1017.6 |
| 20260506181843 | 11 | 296 | 8.0 | 11.3 | 0.00 | 0.00 | 0.00 | 39 | 1017.7 |
| 20260506181341 | 11 | 269 | 9.7 | 24.1 | 0.00 | 0.00 | 0.00 | 40 | 1017.7 |
| 20260506180837 | 11 | 316 | 16.1 | 22.5 | 0.00 | 0.00 | 0.00 | 39 | 1017.8 |
| 20260506180333 | 11 | 349 | 3.2 | 9.7 | 0.00 | 0.00 | 0.00 | 41 | 1017.9 |
| 20260506175824 | 11 | 306 | 11.3 | 20.9 | 0.00 | 0.00 | 0.00 | 39 | 1017.8 |
| 20260506175321 | 11 | 243 | 6.4 | 12.9 | 0.00 | 0.00 | 0.00 | 38 | 1017.9 |
| 20260506174818 | 11 | 310 | 9.7 | 16.1 | 0.00 | 0.00 | 0.00 | 41 | 1017.9 |
| 20260506174315 | 11 | 330 | 14.5 | 17.7 | 0.00 | 0.00 | 0.00 | 39 | 1018.0 |
| 20260506173813 | 11 | 333 | 12.9 | 16.1 | 0.00 | 0.00 | 0.00 | 41 | 1018.0 |
| 20260506173310 | 11 | 300 | 8.0 | 14.5 | 0.00 | 0.00 | 0.00 | 40 | 1018.1 |
| 20260506172807 | 11 | 292 | 3.2 | 9.7 | 0.00 | 0.00 | 0.00 | 40 | 1018.1 |
| 20260506172306 | 12 | 322 | 8.0 | 16.1 | 0.00 | 0.00 | 0.00 | 41 | 1018.0 |
| 20260506171801 | 10 | 18 | 4.8 | 14.5 | 0.00 | 0.00 | 0.00 | 40 | 1018.0 |
| 20260506171257 | 11 | 335 | 12.9 | 20.9 | 0.00 | 0.00 | 0.00 | 41 | 1018.2 |
| 20260506170755 | 10 | 324 | 11.3 | 16.1 | 0.00 | 0.00 | 0.00 | 41 | 1018.3 |
| 20260506170251 | 11 | 16 | 6.4 | 17.7 | 0.00 | 0.00 | 0.00 | 42 | 1018.1 |
| 20260506165750 | 11 | 277 | 11.3 | 14.5 | 0.00 | 0.00 | 0.00 | 39 | 1018.2 |
| 20260506165247 | 11 | 306 | 9.7 | 22.5 | 0.00 | 0.00 | 0.00 | 41 | 1018.2 |
| 20260506164744 | 11 | 299 | 3.2 | 27.4 | 0.00 | 0.00 | 0.00 | 41 | 1018.3 |
| 20260506164241 | 11 | 296 | 6.4 | 16.1 | 0.00 | 0.00 | 0.00 | 44 | 1018.1 |
| 20260506163738 | 11 | 310 | 14.5 | 22.5 | 0.00 | 0.00 | 0.00 | 41 | 1018.0 |
| 20260506163232 | 11 | 325 | 8.0 | 20.9 | 0.00 | 0.00 | 0.00 | 41 | 1018.2 |
| 20260506162728 | 10 | 32 | 8.0 | 20.9 | 0.00 | 0.00 | 0.00 | 42 | 1018.1 |
| 20260506162227 | 10 | 25 | 1.6 | 9.7 | 0.00 | 0.00 | 0.00 | 42 | 1018.2 |
| 20260506161724 | 11 | 350 | 11.3 | 17.7 | 0.00 | 0.00 | 0.00 | 42 | 1018.2 |
| 20260506161220 | 11 | 281 | 14.5 | 25.7 | 0.00 | 0.00 | 0.00 | 38 | 1018.1 |
| 20260506160718 | 10 | 23 | 6.4 | 12.9 | 0.00 | 0.00 | 0.00 | 43 | 1018.1 |
| 20260506160209 | 10 | 300 | 8.0 | 20.9 | 0.00 | 0.00 | 0.00 | 44 | 1018.1 |
| 20260506155707 | 10 | 290 | 8.0 | 11.3 | 0.00 | 0.00 | 0.00 | 45 | 1018.0 |
| 20260506155204 | 10 | 284 | 4.8 | 22.5 | 0.00 | 0.00 | 0.00 | 46 | 1018.2 |
| 20260506153306 | 10 | 312 | 3.2 | 9.7 | 0.00 | 0.00 | 0.00 | 48 | 1018.1 |
| 20260506152803 | 10 | 310 | 4.8 | 8.0 | 0.00 | 0.00 | 0.00 | 48 | 1018.0 |
| 20260506152300 | 10 | 318 | 6.4 | 12.9 | 0.00 | 0.00 | 0.00 | 49 | 1018.3 |
| 20260506151759 | 9 | 335 | 3.2 | 9.7 | 0.00 | 0.00 | 0.00 | 48 | 1018.2 |
| 20260506151255 | 8 | 347 | 4.8 | 12.9 | 0.00 | 0.00 | 0.00 | 49 | 1018.1 |
| 20260506150752 | 9 | 334 | 12.9 | 16.1 | 0.00 | 0.00 | 0.00 | 49 | 1018.2 |
| 20260506150249 | 9 | 359 | 8.0 | 12.9 | 0.00 | 0.00 | 0.00 | 51 | 1018.1 |
| 20260506145746 | 8 | 351 | 6.4 | 9.7 | 0.00 | 0.00 | 0.00 | 51 | 1018.1 |
| 20260506145242 | 8 | 301 | 4.8 | 8.0 | 0.00 | 0.00 | 0.00 | 54 | 1018.3 |
| 20260506144740 | 8 | 261 | 6.4 | 11.3 | 0.00 | 0.00 | 0.00 | 53 | 1018.0 |
| 20260506144237 | 8 | 316 | 3.2 | 4.8 | 0.00 | 0.00 | 0.00 | 55 | 1018.1 |
| 20260506143734 | 8 | 347 | 4.8 | 4.8 | 0.00 | 0.00 | 0.00 | 57 | 1018.1 |
| 20260506143231 | 7 | 334 | 0.0 | 3.2 | 0.00 | 0.00 | 0.00 | 57 | 1018.0 |
| 20260506142730 | 7 | 8 | 4.8 | 9.7 | 0.00 | 0.00 | 0.00 | 59 | 1018.1 |
| 20260506142227 | 8 | 325 | 3.2 | 11.3 | 0.00 | 0.00 | 0.00 | 58 | 1018.1 |
| 20260506141725 | 8 | 353 | 3.2 | 4.8 | 0.00 | 0.00 | 0.00 | 59 | 1017.9 |
| 20260506141224 | 7 | 338 | 6.4 | 9.7 | 0.00 | 0.00 | 0.00 | 57 | 1018.0 |
| 20260506140721 | 7 | 6 | 8.0 | 12.9 | 0.00 | 0.00 | 0.00 | 57 | 1017.8 |
| 20260506140217 | 7 | 349 | 4.8 | 8.0 | 0.00 | 0.00 | 0.00 | 58 | 1017.8 |
| 20260506135714 | 7 | 332 | 1.6 | 8.0 | 0.00 | 0.00 | 0.00 | 62 | 1017.8 |
| 20260506135211 | 7 | 347 | 3.2 | 4.8 | 0.00 | 0.00 | 0.00 | 61 | 1017.5 |
| 20260506134708 | 7 | 335 | 4.8 | 4.8 | 0.00 | 0.00 | 0.00 | 64 | 1017.6 |
| 20260506134203 | 6 | 327 | 3.2 | 3.2 | 0.00 | 0.00 | 0.00 | 65 | 1017.3 |
| 20260506133701 | 6 | 348 | 3.2 | 9.7 | 0.00 | 0.00 | 0.00 | 65 | 1017.3 |
| 20260506133157 | 6 | 313 | 3.2 | 8.0 | 0.00 | 0.00 | 0.00 | 64 | 1017.5 |
| 20260506132655 | 6 | 332 | 1.6 | 3.2 | 0.00 | 0.00 | 0.00 | 67 | 1017.2 |
| 20260506132151 | 6 | 316 | 3.2 | 3.2 | 0.00 | 0.00 | 0.00 | 68 | 1017.1 |
| 20260506131649 | 6 | 317 | 0.0 | 1.6 | 0.00 | 0.00 | 0.00 | 66 | 1017.2 |
| 20260506131145 | 6 | 346 | 4.8 | 4.8 | 0.00 | 0.00 | 0.00 | 68 | 1017.3 |
| 20260506130642 | 6 | 343 | 3.2 | 4.8 | 0.00 | 0.00 | 0.00 | 68 | 1017.1 |
| 20260506130140 | 5 | 331 | 0.0 | 1.6 | 0.00 | 0.00 | 0.00 | 70 | 1017.0 |
| 20260506125638 | 5 | 327 | 3.2 | 3.2 | 0.00 | 0.00 | 0.00 | 69 | 1017.1 |
| 20260506125135 | 5 | 317 | 4.8 | 4.8 | 0.00 | 0.00 | 0.00 | 68 | 1017.0 |
| 20260506124633 | 5 | 336 | 3.2 | 4.8 | 0.00 | 0.00 | 0.00 | 71 | 1017.0 |
| 20260506124131 | 5 | 304 | 1.6 | 3.2 | 0.00 | 0.00 | 0.00 | 71 | 1017.0 |
| 20260506123628 | 5 | 301 | 0.0 | 1.6 | 0.00 | 0.00 | 0.00 | 72 | 1016.9 |
| 20260506123127 | 5 | 300 | 1.6 | 3.2 | 0.00 | 0.00 | 0.00 | 73 | 1016.9 |
| 20260506122623 | 5 | 299 | 0.0 | 1.6 | 0.00 | 0.00 | 0.00 | 75 | 1016.8 |
| 20260506122121 | 4 | 300 | 0.0 | 0.0 | 0.00 | 0.00 | 0.00 | 76 | 1016.5 |
| 20260506121618 | 4 | 300 | 1.6 | 1.6 | 0.00 | 0.00 | 0.00 | 76 | 1016.4 |
| 20260506121114 | 3 | 300 | 0.0 | 1.6 | 0.00 | 0.00 | 0.00 | 77 | 1016.5 |
| 20260506120612 | 3 | 300 | 0.0 | 0.0 | 0.00 | 0.00 | 0.00 | 77 | 1016.5 |
| 20260506120109 | 3 | 300 | 0.0 | 1.6 | 0.00 | 0.00 | 0.00 | 76 | 1016.5 |
| 20260506115608 | 3 | 300 | 1.6 | 3.2 | 0.00 | 0.00 | 0.00 | 76 | 1016.4 |
| 20260506115106 | 3 | 300 | 1.6 | 1.6 | 0.00 | 0.00 | 0.00 | 76 | 1016.4 |
| 20260506114602 | 3 | 300 | 1.6 | 1.6 | 0.00 | 0.00 | 0.00 | 75 | 1016.5 |
| 20260506114101 | 3 | 303 | 1.6 | 1.6 | 0.00 | 0.00 | 0.00 | 76 | 1016.1 |
| 20260506113558 | 3 | 303 | 3.2 | 3.2 | 0.00 | 0.00 | 0.00 | 75 | 1016.2 |
| 20260506113055 | 3 | 302 | 1.6 | 4.8 | 0.00 | 0.00 | 0.00 | 76 | 1016.2 |
| 20260506112552 | 3 | 302 | 0.0 | 3.2 | 0.00 | 0.00 | 0.00 | 76 | 1016.0 |
| 20260506112049 | 3 | 299 | 1.6 | 1.6 | 0.00 | 0.00 | 0.00 | 77 | 1015.9 |
| 20260506111547 | 3 | 298 | 1.6 | 3.2 | 0.00 | 0.00 | 0.00 | 77 | 1015.9 |
| 20260506111044 | 3 | 297 | 0.0 | 1.6 | 0.00 | 0.00 | 0.00 | 75 | 1015.8 |
| 20260506110542 | 3 | 297 | 1.6 | 3.2 | 0.00 | 0.00 | 0.00 | 74 | 1015.8 |
| 20260506110039 | 3 | 297 | 1.6 | 1.6 | 0.00 | 0.00 | 0.00 | 75 | 1015.5 |
| 20260506105535 | 3 | 298 | 0.0 | 1.6 | 0.00 | 0.00 | 0.00 | 76 | 1015.8 |
| 20260506105032 | 3 | 297 | 1.6 | 1.6 | 0.00 | 0.00 | 0.00 | 75 | 1015.7 |
| 20260506104530 | 3 | 297 | 1.6 | 3.2 | 0.00 | 0.00 | 0.00 | 74 | 1015.5 |
| 20260506104028 | 3 | 299 | 1.6 | 3.2 | 0.00 | 0.00 | 0.00 | 74 | 1015.4 |
| 20260506103525 | 3 | 299 | 0.0 | 3.2 | 0.00 | 0.00 | 0.00 | 74 | 1015.4 |
| 20260506103021 | 3 | 299 | 0.0 | 1.6 | 0.00 | 0.00 | 0.00 | 74 | 1015.3 |
| 20260506102520 | 3 | 299 | 0.0 | 0.0 | 0.00 | 0.00 | 0.00 | 76 | 1015.4 |
| 20260506102017 | 3 | 299 | 0.0 | 1.6 | 0.00 | 0.00 | 0.00 | 77 | 1015.0 |
| 20260506101513 | 3 | 299 | 0.0 | 1.6 | 0.00 | 0.00 | 0.00 | 74 | 1015.1 |
| 20260506101011 | 3 | 296 | 0.0 | 1.6 | 0.00 | 0.00 | 0.00 | 74 | 1015.1 |
| 20260506100509 | 3 | 296 | 0.0 | 1.6 | 0.00 | 0.00 | 0.00 | 74 | 1015.2 |
| 20260506100007 | 3 | 296 | 0.0 | 1.6 | 0.00 | 0.00 | 0.00 | 74 | 1015.2 |
| 20260506095505 | 3 | 312 | 1.6 | 1.6 | 0.00 | 0.00 | 0.00 | 75 | 1015.0 |
| 20260506095001 | 3 | 312 | 0.0 | 1.6 | 0.00 | 0.00 | 0.00 | 75 | 1015.1 |
| 20260506094459 | 3 | 295 | 0.0 | 4.8 | 0.00 | 0.00 | 0.00 | 74 | 1015.2 |
| 20260506093956 | 3 | 298 | 1.6 | 3.2 | 0.00 | 0.00 | 0.00 | 74 | 1015.1 |
| 20260506093455 | 3 | 296 | 1.6 | 4.8 | 0.00 | 0.00 | 0.00 | 74 | 1015.1 |
| 20260506092952 | 3 | 298 | 4.8 | 4.8 | 0.00 | 0.00 | 0.00 | 74 | 1015.1 |
| 20260506092450 | 3 | 300 | 1.6 | 4.8 | 0.00 | 0.00 | 0.00 | 74 | 1015.0 |
| 20260506091946 | 3 | 306 | 1.6 | 4.8 | 0.00 | 0.00 | 0.00 | 74 | 1015.0 |
| 20260506091444 | 4 | 303 | 1.6 | 4.8 | 0.00 | 0.00 | 0.00 | 73 | 1015.0 |
| 20260506090941 | 4 | 301 | 1.6 | 3.2 | 0.00 | 0.00 | 0.00 | 72 | 1014.8 |
| 20260506090439 | 4 | 301 | 1.6 | 3.2 | 0.00 | 0.00 | 0.00 | 72 | 1014.5 |
| 20260506085935 | 4 | 301 | 1.6 | 4.8 | 0.00 | 0.00 | 0.00 | 71 | 1014.7 |
| 20260506085432 | 4 | 297 | 3.2 | 4.8 | 0.00 | 0.00 | 0.00 | 72 | 1014.6 |
| 20260506084928 | 4 | 306 | 3.2 | 4.8 | 0.00 | 0.00 | 0.00 | 71 | 1014.7 |
| 20260506084426 | 4 | 296 | 3.2 | 4.8 | 0.00 | 0.00 | 0.00 | 70 | 1014.6 |
| 20260506083921 | 4 | 306 | 1.6 | 3.2 | 0.00 | 0.00 | 0.00 | 68 | 1014.7 |
| 20260506083419 | 5 | 305 | 3.2 | 3.2 | 0.00 | 0.00 | 0.00 | 65 | 1014.4 |
| 20260506082916 | 5 | 299 | 1.6 | 1.6 | 0.00 | 0.00 | 0.00 | 63 | 1014.2 |
| 20260506082414 | 5 | 300 | 0.0 | 0.0 | 0.00 | 0.00 | 0.00 | 64 | 1014.2 |
| 20260506081909 | 5 | 299 | 0.0 | 1.6 | 0.00 | 0.00 | 0.00 | 64 | 1014.2 |
| 20260506081408 | 4 | 299 | 0.0 | 1.6 | 0.00 | 0.00 | 0.00 | 65 | 1014.2 |
| 20260506080904 | 4 | 300 | 0.0 | 1.6 | 0.00 | 0.00 | 0.00 | 65 | 1014.5 |
| 20260506080402 | 4 | 300 | 0.0 | 0.0 | 0.00 | 0.00 | 0.00 | 65 | 1014.4 |
| 20260506073345 | 5 | 300 | 1.6 | 1.6 | 0.00 | 0.00 | 0.00 | 64 | 1014.4 |
| 20260506072842 | 4 | 301 | 0.0 | 0.0 | 0.00 | 0.00 | 0.00 | 65 | 1014.2 |
| 20260506072340 | 4 | 301 | 0.0 | 0.0 | 0.00 | 0.00 | 0.00 | 66 | 1014.4 |
| 20260506071837 | 4 | 301 | 0.0 | 0.0 | 0.00 | 0.00 | 0.00 | 66 | 1014.2 |
| 20260506071335 | 4 | 301 | 0.0 | 0.0 | 0.00 | 0.00 | 0.00 | 66 | 1014.3 |
| 20260506070832 | 5 | 301 | 0.0 | 0.0 | 0.00 | 0.00 | 0.00 | 65 | 1014.4 |
| 20260506070329 | 5 | 301 | 0.0 | 0.0 | 0.00 | 0.00 | 0.00 | 65 | 1014.2 |
| 20260506062306 | 6 | 308 | 1.6 | 1.6 | 0.00 | 0.00 | 0.00 | 62 | 1014.6 |
| 20260506061802 | 6 | 302 | 1.6 | 4.8 | 0.00 | 0.00 | 0.00 | 59 | 1014.6 |
| 20260506061259 | 6 | 323 | 3.2 | 3.2 | 0.00 | 0.00 | 0.00 | 57 | 1014.5 |
| 20260506060757 | 6 | 335 | 0.0 | 1.6 | 0.00 | 0.00 | 0.00 | 58 | 1014.6 |
| 20260506060255 | 6 | 335 | 1.6 | 1.6 | 0.00 | 0.00 | 0.00 | 58 | 1014.4 |
| 20260506051226 | 7 | 336 | 1.6 | 3.2 | 0.00 | 0.00 | 0.00 | 50 | 1013.5 |
| 20260506050724 | 7 | 336 | 1.6 | 3.2 | 0.00 | 0.00 | 0.00 | 49 | 1013.5 |
| 20260506050221 | 7 | 342 | 3.2 | 4.8 | 0.00 | 0.00 | 0.00 | 49 | 1013.3 |
| 20260506044707 | 8 | 335 | 0.0 | 3.2 | 0.00 | 0.00 | 0.00 | 49 | 1013.1 |
| 20260506044203 | 8 | 336 | 3.2 | 3.2 | 0.00 | 0.00 | 0.00 | 49 | 1013.2 |
| 20260506043701 | 8 | 354 | 3.2 | 4.8 | 0.00 | 0.00 | 0.00 | 47 | 1013.4 |
| 20260506043158 | 8 | 343 | 4.8 | 4.8 | 0.00 | 0.00 | 0.00 | 46 | 1013.3 |
| 20260506042657 | 8 | 328 | 0.0 | 3.2 | 0.00 | 0.00 | 0.00 | 48 | 1013.3 |
| 20260506042155 | 8 | 321 | 1.6 | 3.2 | 0.00 | 0.00 | 0.00 | 47 | 1013.3 |
| 20260506041653 | 9 | 346 | 1.6 | 8.0 | 0.00 | 0.00 | 0.00 | 46 | 1013.1 |
| 20260506041150 | 9 | 345 | 6.4 | 11.3 | 0.00 | 0.00 | 0.00 | 45 | 1013.1 |
| 20260506040648 | 9 | 337 | 4.8 | 11.3 | 0.00 | 0.00 | 0.00 | 45 | 1013.2 |
| 20260506040144 | 9 | 4 | 6.4 | 9.7 | 0.00 | 0.00 | 0.00 | 44 | 1012.7 |
| 20260506035641 | 10 | 15 | 8.0 | 12.9 | 0.00 | 0.00 | 0.00 | 44 | 1012.9 |
| 20260506035137 | 10 | 335 | 14.5 | 20.9 | 0.00 | 0.00 | 0.00 | 43 | 1013.0 |
| 20260506034635 | 10 | 17 | 4.8 | 9.7 | 0.00 | 0.00 | 0.00 | 44 | 1013.0 |
| 20260506034132 | 10 | 318 | 4.8 | 11.3 | 0.00 | 0.00 | 0.00 | 43 | 1013.1 |
| 20260506033629 | 10 | 23 | 6.4 | 9.7 | 0.00 | 0.00 | 0.00 | 45 | 1012.8 |
| 20260506033126 | 10 | 19 | 6.4 | 14.5 | 0.00 | 0.00 | 0.00 | 44 | 1012.9 |
| 20260506032623 | 10 | 345 | 6.4 | 11.3 | 0.00 | 0.00 | 0.00 | 44 | 1012.7 |
| 20260506032120 | 10 | 357 | 4.8 | 9.7 | 0.00 | 0.00 | 0.00 | 45 | 1012.7 |
| 20260506031617 | 10 | 347 | 4.8 | 14.5 | 0.00 | 0.00 | 0.00 | 45 | 1012.7 |
| 20260506031114 | 10 | 359 | 8.0 | 11.3 | 0.00 | 0.00 | 0.00 | 44 | 1012.6 |
| 20260506030613 | 10 | 273 | 3.2 | 11.3 | 0.00 | 0.00 | 0.00 | 44 | 1012.6 |
| 20260506030109 | 10 | 307 | 6.4 | 9.7 | 0.00 | 0.00 | 0.00 | 43 | 1012.7 |
| 20260506025606 | 10 | 300 | 3.2 | 11.3 | 0.00 | 0.00 | 0.00 | 43 | 1012.4 |
| 20260506025102 | 10 | 293 | 4.8 | 8.0 | 0.00 | 0.00 | 0.00 | 43 | 1012.4 |
| 20260506024600 | 10 | 269 | 6.4 | 11.3 | 0.00 | 0.00 | 0.00 | 42 | 1012.3 |
| 20260506024056 | 11 | 302 | 3.2 | 8.0 | 0.00 | 0.00 | 0.00 | 41 | 1012.2 |
| 20260506023552 | 11 | 310 | 1.6 | 9.7 | 0.00 | 0.00 | 0.00 | 42 | 1012.1 |
| 20260506023050 | 11 | 334 | 3.2 | 3.2 | 0.00 | 0.00 | 0.00 | 41 | 1012.1 |
| 20260506022547 | 11 | 306 | 6.4 | 9.7 | 0.00 | 0.00 | 0.00 | 40 | 1012.0 |
| 20260506022044 | 11 | 299 | 0.0 | 4.8 | 0.00 | 0.00 | 0.00 | 40 | 1011.9 |
| 20260506021541 | 11 | 296 | 4.8 | 11.3 | 0.00 | 0.00 | 0.00 | 39 | 1012.0 |
| 20260506021039 | 11 | 307 | 6.4 | 9.7 | 0.00 | 0.00 | 0.00 | 39 | 1011.9 |
| 20260506020536 | 11 | 308 | 6.4 | 9.7 | 0.00 | 0.00 | 0.00 | 39 | 1011.9 |
| 20260506020033 | 11 | 312 | 1.6 | 12.9 | 0.00 | 0.00 | 0.00 | 39 | 1011.8 |
| 20260506015531 | 11 | 286 | 4.8 | 9.7 | 0.00 | 0.00 | 0.00 | 39 | 1011.9 |
| 20260506015027 | 11 | 314 | 8.0 | 9.7 | 0.00 | 0.00 | 0.00 | 39 | 1011.7 |
| 20260506014525 | 11 | 313 | 4.8 | 9.7 | 0.00 | 0.00 | 0.00 | 39 | 1011.8 |
| 20260506014021 | 11 | 305 | 9.7 | 12.9 | 0.00 | 0.00 | 0.00 | 39 | 1011.7 |
| 20260506013519 | 11 | 325 | 3.2 | 11.3 | 0.00 | 0.00 | 0.00 | 39 | 1011.7 |
| 20260506013016 | 12 | 313 | 8.0 | 9.7 | 0.00 | 0.00 | 0.00 | 39 | 1011.6 |
| 20260506012512 | 12 | 295 | 3.2 | 12.9 | 0.00 | 0.00 | 0.00 | 39 | 1011.6 |
| 20260506012009 | 12 | 319 | 8.0 | 24.1 | 0.00 | 0.00 | 0.00 | 38 | 1011.7 |
| 20260506011506 | 12 | 303 | 4.8 | 11.3 | 0.00 | 0.00 | 0.00 | 39 | 1011.6 |
| 20260506011002 | 12 | 331 | 4.8 | 11.3 | 0.00 | 0.00 | 0.00 | 38 | 1011.6 |
| 20260506010502 | 12 | 301 | 9.7 | 16.1 | 0.00 | 0.00 | 0.00 | 38 | 1011.5 |
| 20260506005957 | 12 | 277 | 11.3 | 16.1 | 0.00 | 0.00 | 0.00 | 37 | 1011.4 |
| 20260506005455 | 12 | 258 | 8.0 | 11.3 | 0.00 | 0.00 | 0.00 | 38 | 1011.3 |
| 20260506004950 | 12 | 31 | 9.7 | 12.9 | 0.00 | 0.00 | 0.00 | 37 | 1011.2 |
| 20260506004448 | 12 | 266 | 6.4 | 17.7 | 0.00 | 0.00 | 0.00 | 39 | 1011.2 |
| 20260506003944 | 12 | 313 | 11.3 | 16.1 | 0.00 | 0.00 | 0.00 | 39 | 1010.9 |
| 20260506003440 | 12 | 300 | 0.0 | 3.2 | 0.00 | 0.00 | 0.00 | 39 | 1010.9 |
| 20260506002931 | 12 | 279 | 9.7 | 12.9 | 0.00 | 0.00 | 0.00 | 39 | 1010.8 |
| 20260506002428 | 12 | 278 | 8.0 | 11.3 | 0.00 | 0.00 | 0.00 | 37 | 1010.8 |
| 20260506001923 | 12 | 315 | 8.0 | 12.9 | 0.00 | 0.00 | 0.00 | 37 | 1010.9 |
| 20260506001421 | 13 | 304 | 6.4 | 9.7 | 0.00 | 0.00 | 0.00 | 38 | 1010.8 |
| 20260506000918 | 13 | 282 | 4.8 | 8.0 | 0.00 | 0.00 | 0.00 | 38 | 1010.7 |
| 20260506000416 | 13 | 335 | 9.7 | 14.5 | 0.00 | 0.00 | 0.00 | 38 | 1010.7 |
| 20260505235912 | 13 | 305 | 11.3 | 22.5 | 0.00 | 0.00 | 0.00 | 37 | 1010.8 |
| 20260505235410 | 13 | 314 | 4.8 | 11.3 | 0.00 | 0.00 | 0.00 | 37 | 1010.9 |
| 20260505234907 | 13 | 338 | 9.7 | 16.1 | 0.00 | 0.00 | 0.00 | 36 | 1010.7 |
| 20260505234404 | 13 | 308 | 8.0 | 12.9 | 0.00 | 0.00 | 0.00 | 35 | 1010.6 |
| 20260505233901 | 13 | 253 | 8.0 | 16.1 | 0.00 | 0.00 | 0.00 | 35 | 1010.6 |
| 20260505233359 | 13 | 305 | 9.7 | 12.9 | 0.00 | 0.00 | 0.00 | 35 | 1010.7 |
| 20260505232856 | 13 | 321 | 4.8 | 14.5 | 0.00 | 0.00 | 0.00 | 36 | 1010.6 |
| 20260505232354 | 13 | 358 | 8.0 | 14.5 | 0.00 | 0.00 | 0.00 | 36 | 1010.5 |
| 20260505231850 | 13 | 316 | 12.9 | 17.7 | 0.00 | 0.00 | 0.00 | 36 | 1010.4 |
| 20260505231348 | 13 | 356 | 4.8 | 14.5 | 0.00 | 0.00 | 0.00 | 36 | 1010.5 |
| 20260505230846 | 13 | 311 | 1.6 | 14.5 | 0.00 | 0.00 | 0.00 | 35 | 1010.5 |
| 20260505230343 | 13 | 282 | 12.9 | 25.7 | 0.00 | 0.00 | 0.00 | 34 | 1010.4 |
| 20260505225839 | 13 | 302 | 9.7 | 20.9 | 0.00 | 0.00 | 0.00 | 35 | 1010.3 |
| 20260505225336 | 13 | 341 | 4.8 | 20.9 | 0.00 | 0.00 | 0.00 | 35 | 1010.2 |
| 20260505224830 | 13 | 326 | 12.9 | 17.7 | 0.00 | 0.00 | 0.00 | 35 | 1010.4 |
| 20260505224329 | 13 | 16 | 8.0 | 24.1 | 0.00 | 0.00 | 0.00 | 35 | 1010.2 |
| 20260505223826 | 14 | 10 | 6.4 | 24.1 | 0.00 | 0.00 | 0.00 | 36 | 1010.4 |
| 20260505223323 | 14 | 336 | 6.4 | 22.5 | 0.00 | 0.00 | 0.00 | 35 | 1010.3 |
| 20260505222818 | 14 | 20 | 8.0 | 17.7 | 0.00 | 0.00 | 0.00 | 34 | 1010.3 |
| 20260505222315 | 15 | 338 | 12.9 | 20.9 | 0.00 | 0.00 | 0.00 | 34 | 1010.2 |
| 20260505221812 | 15 | 6 | 8.0 | 14.5 | 0.00 | 0.00 | 0.00 | 36 | 1010.2 |
| 20260505221308 | 15 | 329 | 14.5 | 20.9 | 0.00 | 0.00 | 0.00 | 34 | 1009.9 |
| 20260505220806 | 15 | 283 | 11.3 | 24.1 | 0.00 | 0.00 | 0.00 | 36 | 1010.0 |
| 20260505220303 | 15 | 292 | 6.4 | 12.9 | 0.00 | 0.00 | 0.00 | 41 | 1009.8 |
| 20260505215801 | 14 | 256 | 11.3 | 14.5 | 0.00 | 0.00 | 0.00 | 40 | 1009.7 |
| 20260505215258 | 14 | 221 | 9.7 | 12.9 | 0.00 | 0.00 | 0.00 | 43 | 1010.0 |
| 20260505214756 | 14 | 249 | 8.0 | 11.3 | 0.00 | 0.00 | 0.00 | 41 | 1010.2 |
| 20260505214254 | 14 | 243 | 6.4 | 9.7 | 0.00 | 0.00 | 0.00 | 41 | 1009.9 |
| 20260505213751 | 14 | 284 | 9.7 | 11.3 | 0.00 | 0.00 | 0.00 | 40 | 1010.2 |
| 20260505213248 | 14 | 252 | 4.8 | 12.9 | 0.00 | 0.00 | 0.00 | 40 | 1010.3 |
| 20260505212744 | 14 | 217 | 9.7 | 11.3 | 0.00 | 0.00 | 0.00 | 43 | 1010.3 |
| 20260505212242 | 14 | 278 | 1.6 | 12.9 | 0.00 | 0.00 | 0.00 | 42 | 1010.3 |
| 20260505211738 | 14 | 246 | 6.4 | 17.7 | 0.00 | 0.00 | 0.00 | 41 | 1010.4 |
| 20260505211236 | 15 | 262 | 3.2 | 4.8 | 0.00 | 0.00 | 0.00 | 43 | 1010.4 |
| 20260505210732 | 14 | 281 | 1.6 | 8.0 | 0.00 | 0.00 | 0.00 | 43 | 1010.4 |
| 20260505210229 | 14 | 262 | 4.8 | 8.0 | 0.00 | 0.00 | 0.00 | 41 | 1010.4 |
| 20260505205726 | 13 | 298 | 1.6 | 3.2 | 0.00 | 0.00 | 0.00 | 42 | 1010.6 |
| 20260505205224 | 14 | 295 | 4.8 | 9.7 | 0.00 | 0.00 | 0.00 | 41 | 1010.5 |
| 20260505204720 | 14 | 208 | 6.4 | 9.7 | 0.00 | 0.00 | 0.00 | 42 | 1010.7 |
| 20260505204219 | 13 | 262 | 3.2 | 9.7 | 0.00 | 0.00 | 0.00 | 44 | 1010.8 |
| 20260505203715 | 13 | 263 | 8.0 | 9.7 | 0.00 | 0.00 | 0.00 | 41 | 1011.0 |
| 20260505203212 | 13 | 226 | 11.3 | 14.5 | 0.00 | 0.00 | 0.00 | 41 | 1010.9 |
| 20260505202708 | 13 | 297 | 3.2 | 3.2 | 0.00 | 0.00 | 0.00 | 43 | 1011.2 |
| 20260505202204 | 13 | 280 | 6.4 | 12.9 | 0.00 | 0.00 | 0.00 | 42 | 1011.1 |
| 20260505201701 | 13 | 313 | 3.2 | 11.3 | 0.00 | 0.00 | 0.00 | 42 | 1011.2 |
| 20260505201159 | 13 | 287 | 0.0 | 8.0 | 0.00 | 0.00 | 0.00 | 41 | 1011.2 |
| 20260505200657 | 13 | 263 | 1.6 | 8.0 | 0.00 | 0.00 | 0.00 | 42 | 1011.2 |
| 20260505200153 | 13 | 294 | 12.9 | 17.7 | 0.00 | 0.00 | 0.00 | 42 | 1011.4 |
| 20260505195649 | 14 | 282 | 4.8 | 11.3 | 0.00 | 0.00 | 0.00 | 43 | 1011.3 |
| 20260505195147 | 13 | 259 | 4.8 | 11.3 | 0.00 | 0.00 | 0.00 | 41 | 1011.3 |
| 20260505194644 | 13 | 286 | 9.7 | 14.5 | 0.00 | 0.00 | 0.00 | 42 | 1011.6 |
| 20260505194140 | 13 | 187 | 8.0 | 12.9 | 0.00 | 0.00 | 0.00 | 41 | 1011.7 |
| 20260505193636 | 13 | 291 | 11.3 | 14.5 | 0.00 | 0.00 | 0.00 | 41 | 1011.6 |
| 20260505193133 | 13 | 294 | 3.2 | 8.0 | 0.00 | 0.00 | 0.00 | 43 | 1011.7 |
| 20260505192632 | 14 | 317 | 8.0 | 12.9 | 0.00 | 0.00 | 0.00 | 41 | 1011.6 |
| 20260505192129 | 13 | 277 | 0.0 | 11.3 | 0.00 | 0.00 | 0.00 | 44 | 1011.6 |
| 20260505191628 | 13 | 250 | 6.4 | 11.3 | 0.00 | 0.00 | 0.00 | 43 | 1011.6 |
| 20260505191125 | 13 | 328 | 9.7 | 14.5 | 0.00 | 0.00 | 0.00 | 43 | 1011.6 |
| 20260505190621 | 14 | 296 | 8.0 | 14.5 | 0.00 | 0.00 | 0.00 | 41 | 1011.8 |